Weather History for Burnet, TX

Change the Weather History Date:

Saturday, March 23, 2013

  Actual Average Record
Temperature  
Mean Temperature 64 °F -  
Max Temperature 80 °F 67 °F 86 °F (2011)
Min Temperature 48 °F 48 °F 36 °F (2006)
Degree Days  
Heating Degree Days 1    
Growing Degree Days 14 (Base 50)    
Moisture  
Dew Point 49 °F    
Average Humidity 78    
Maximum Humidity 93    
Minimum Humidity 35    
Precipitation  
Precipitation 0.00 in - - ()
Sea Level Pressure  
Sea Level Pressure 29.74 in    
Wind  
Wind Speed 8 mph (NE)    
Max Wind Speed 14 mph    
Max Gust Speed 22 mph    
Visibility 6 miles    
Events      
Averages and records for this station are not official NWS values.
T = Trace of Precipitation, MM = Missing Value Source: NWS Daily Summary

Daily Weather History Graph

Daily Weather History Graph

Search for Another Location

Airport:

Trip Planner

Search our weather history database for the weather conditions in past years. The results will help you decide how hot, cold, wet, or windy it might be!

Date:

Astronomy

Mar. 23, 2013 Rise Set
Actual Time 7:32 AM CDT 7:46 PM CDT
Civil Twilight 7:08 AM CDT 8:10 PM CDT
Nautical Twilight 6:40 AM CDT 8:38 PM CDT
Astronomical Twilight 6:12 AM CDT 9:07 PM CDT
Moon 4:26 PM CDT (3/23) 4:56 AM CDT (3/23)
Length of Visible Light 13h 02m
Length of Day
12h 13m
Waxing Gibbous, 85% of the Moon is Illuminated
Mar 23
Waxing Gibbous
Mar 27
Full
Apr 2
Last Quarter
Apr 10
New
Apr 18
First Quarter

Hourly Weather History & Observations

Time (CDT) Temp. Dew Point Humidity Pressure Visibility Wind Dir Wind Speed Gust Speed Precip Events Conditions
12:53 AM 50.0 °F 43.0 °F 77% 29.76 in 8.0 mi NE 13.8 mph 21.9 mph N/A   Overcast
1:53 AM 50.0 °F 43.0 °F 77% 29.77 in 8.0 mi NE 10.4 mph - N/A   Overcast
2:53 AM 48.9 °F 44.1 °F 83% 29.76 in 7.0 mi NE 6.9 mph - N/A   Overcast
3:53 AM 50.0 °F 44.1 °F 80% 29.75 in 7.0 mi NE 6.9 mph - N/A   Overcast
4:53 AM 48.9 °F 44.1 °F 83% 29.75 in 6.0 mi NNE 5.8 mph - N/A   Haze
5:53 AM 48.9 °F 44.1 °F 83% 29.74 in 6.0 mi NE 9.2 mph - N/A   Haze
6:53 AM 48.9 °F 45.0 °F 86% 29.75 in 5.0 mi NNE 8.1 mph - N/A   Overcast
7:53 AM 48.9 °F 45.0 °F 86% 29.77 in 4.0 mi NNE 10.4 mph - N/A   Overcast
8:03 AM 48.0 °F 45.0 °F 89% 29.79 in 2.0 mi NNE 8.1 mph - N/A   Overcast
8:08 AM 48.9 °F 46.0 °F 90% 29.79 in 1.8 mi NNE 9.2 mph - N/A   Overcast
8:27 AM 48.9 °F 46.0 °F 90% 29.81 in 1.2 mi NNE 9.2 mph - N/A   Overcast
8:42 AM 48.0 °F 46.0 °F 93% 29.82 in 0.8 mi NNE 9.2 mph - N/A   Overcast
8:51 AM 48.2 °F 46.4 °F 93% 29.82 in 1.0 mi North 6.9 mph - N/A   Overcast
8:53 AM 48.9 °F 46.9 °F 93% 29.80 in 1.0 mi North 8.1 mph - N/A   Overcast
9:40 AM 48.9 °F 46.9 °F 93% 29.81 in 1.5 mi ENE 9.2 mph - N/A   Overcast
9:53 AM 48.9 °F 46.9 °F 93% 29.79 in 1.2 mi NE 9.2 mph - N/A   Overcast
10:03 AM 50.0 °F 46.9 °F 89% 29.80 in 2.0 mi ENE 6.9 mph - N/A   Overcast
10:14 AM 50.0 °F 46.9 °F 89% 29.81 in 4.0 mi NE 5.8 mph - N/A   Overcast
10:44 AM 51.1 °F 46.9 °F 86% 29.81 in 5.0 mi ENE 4.6 mph - N/A   Overcast
10:53 AM 51.1 °F 46.9 °F 86% 29.80 in 5.0 mi ENE 5.8 mph - N/A   Overcast
11:53 AM 54.0 °F 48.9 °F 83% 29.78 in 6.0 mi East 5.8 mph - N/A   Haze
12:53 PM 57.0 °F 50.0 °F 77% 29.76 in 7.0 mi Variable 3.5 mph - N/A   Overcast
1:53 PM 64.0 °F 53.1 °F 67% 29.70 in 9.0 mi Variable 3.5 mph - N/A   Partly Cloudy
2:53 PM 72.0 °F 57.0 °F 59% 29.66 in 10.0 mi Variable 4.6 mph - N/A   Clear
3:53 PM 73.9 °F 54.0 °F 50% 29.63 in 10.0 mi Variable 4.6 mph - N/A   Clear
4:53 PM 77.0 °F 51.1 °F 40% 29.61 in 10.0 mi West 4.6 mph - N/A   Clear
5:53 PM 80.1 °F 50.0 °F 35% 29.60 in 10.0 mi NE 10.4 mph - N/A   Clear
6:53 PM 75.9 °F 52.0 °F 43% 29.60 in 10.0 mi NE 6.9 mph - N/A   Clear
7:53 PM 71.1 °F 57.0 °F 61% 29.62 in 10.0 mi ENE 4.6 mph - N/A   Partly Cloudy
8:53 PM 68.0 °F 57.9 °F 70% 29.67 in 10.0 mi East 6.9 mph - N/A   Clear
9:53 PM 64.0 °F 57.0 °F 78% 29.68 in 9.0 mi East 4.6 mph - N/A   Clear
10:53 PM 61.0 °F 55.9 °F 83% 29.70 in 8.0 mi ESE 4.6 mph - N/A   Clear
11:53 PM 59.0 °F 55.0 °F 87% 29.70 in 5.0 mi Calm Calm - N/A   Clear